This is the latest recevied weather packets stored in our database for station/object KC5TIL-3. If no packets are shown the sender has not sent any weather packets the latest 10 day(s).
| Time | Temp. | Humidity | Pressure | Rain* | Wind** | Luminosity | Snow |
|---|---|---|---|---|---|---|---|
| 1777865952 | 20.56° C | 19% | 1013.8 hPa | 0 mm | 2.68 m/s, 196° | - | - |
| 1777865655 | 20.56° C | 19% | 1013.8 hPa | 0 mm | 2.24 m/s, 220° | - | - |
| 1777865356 | 20.56° C | 19% | 1013.8 hPa | 0 mm | 2.24 m/s, 115° | - | - |
| 1777864757 | 21.11° C | 19% | 1013.8 hPa | 0 mm | 2.24 m/s, 201° | - | - |
| 1777864458 | 21.11° C | 19% | 1013.8 hPa | 0 mm | 2.68 m/s, 155° | - | - |
| 1777864152 | 21.11° C | 19% | 1013.8 hPa | 0 mm | 2.24 m/s, 181° | - | - |
| 1777863854 | 21.11° C | 19% | 1013.8 hPa | 0 mm | 2.68 m/s, 128° | - | - |
| 1777863556 | 21.11° C | 19% | 1013.8 hPa | 0 mm | 2.68 m/s, 218° | - | - |
| 1777863255 | 21.11° C | 19% | 1013.8 hPa | 0 mm | 2.24 m/s, 124° | - | - |
| 1777862957 | 21.67° C | 16% | 1012.8 hPa | 0 mm | 2.68 m/s, 172° | - | - |
| 1777862352 | 21.67° C | 16% | 1012.8 hPa | 0 mm | 2.24 m/s, 135° | - | - |
| 1777861756 | 21.67° C | 16% | 1012.8 hPa | 0 mm | 2.68 m/s, 193° | - | - |
| 1777860858 | 22.22° C | 16% | 1012.8 hPa | 0 mm | 2.24 m/s, 139° | - | - |
| 1777860556 | 22.22° C | 16% | 1012.8 hPa | 0 mm | 2.68 m/s, 229° | - | - |
| 1777859960 | 22.22° C | 16% | 1012.8 hPa | 0 mm | 2.68 m/s, 195° | - | - |
| 1777859361 | 22.78° C | 16% | 1012.8 hPa | 0 mm | 2.24 m/s, 235° | - | - |
| 1777859062 | 22.78° C | 16% | 1012.8 hPa | 0 mm | 2.24 m/s, 223° | - | - |
| 1777858752 | 22.78° C | 16% | 1012.8 hPa | 0 mm | 2.68 m/s, 213° | - | - |
| 1777858455 | 22.78° C | 16% | 1012.8 hPa | 0 mm | 3.58 m/s, 236° | - | - |
| 1777858156 | 23.33° C | 16% | 1012.8 hPa | 0 mm | 2.68 m/s, 210° | - | - |
| 1777857557 | 23.33° C | 16% | 1012.8 hPa | 0 mm | 2.24 m/s, 138° | - | - |
| 1777856361 | 23.89° C | 15% | 1012.8 hPa | 0 mm | 2.24 m/s, 217° | - | - |
| 1777855458 | 24.44° C | 15% | 1012.8 hPa | 0 mm | 3.13 m/s, 226° | - | - |
| 1777854560 | 25° C | 15% | 1012.8 hPa | 0 mm | 3.13 m/s, 146° | - | - |
| 1777853961 | 25.56° C | 15% | 1012.8 hPa | 0 mm | 2.24 m/s, 161° | - | - |
* Rain latest hour (hover to see other rain measurements)
** Current wind speed in m/s (hover to see current wind gust speed)